Location: Cuiry
(49.3858°N, 3.7708°E)
Time: 19:27:45
(UTC+00:00)

Meteor 2-13 Rocket - Pass Details

Date: 12 January 2026
Orbit: 935 x 958 km, 82.5° (Epoch: 16 February)

Event Time Altitude Azimuth Distance (km) Brightness Sun altitude
Rises 18:20:49 0° 185° (S) 3,623 7.7 -20.6°
Reaches altitude 10° 18:23:18 10° 184° (S) 2,683 7.0 -21.0°
Maximum altitude 18:29:27 83° 98° (E) 972 4.3 -21.9°
Drops below altitude 10° 18:35:39 10° 11° (NNE) 2,700 6.6 -22.9°
Sets 18:38:09 0° 11° (N) 3,649 7.3 -23.4°
